Fairbanks, AK

9:44 PM AKDT on May 27, 2018 (GMT -0800)
Fairbanks International

Weather History for PAFA - December, 2011

Change the Weather History Date:

Friday, December 23, 2011

  Actual Average Record
Temperature  
Mean Temperature -2 °F -5 °F  
Max Temperature 11 °F 4 °F 44 °F (1985)
Min Temperature -15 °F -12 °F -53 °F (1961)
Degree Days  
Heating Degree Days 67 70  
Month to date heating degree days 1205 1574  
Since 1 July heating degree days 5320 5705  
Cooling Degree Days 0 0  
Month to date cooling degree days 0 0  
Year to date cooling degree days 39 61  
Moisture  
Dew Point 2 °F    
Average Humidity 87    
Maximum Humidity 92    
Minimum Humidity 82    
Precipitation  
Precipitation 0.14 in 0.02 in 0.53 in (1984)
Month to date precipitation 0.69 0.46  
Year to date precipitation 9.28 10.63  
Snow  
Snow 1.70 in 0.40 in 7.10 in (1984)
Month to date snowfall 9.5 8.8  
Since 1 July snowfall 22.9 34.6  
Snow Depth 11.00 in    
Sea Level Pressure  
Sea Level Pressure 29.45 in    
Wind  
Wind Speed 2 mph (SSW)    
Max Wind Speed 7 mph    
Max Gust Speed -    
Visibility 4 miles    
Events Snow    
T = Trace of Precipitation, MM = Missing Value Source: NWS Daily Summary

Daily Weather History Graph

Daily Weather History Graph

Search for Another Location

Airport or City:

Astronomy

Dec. 23, 2011 Rise Set
Actual Time 10:59 AM AKST 2:42 PM AKST
Civil Twilight 9:33 AM AKST 4:07 PM AKST
Nautical Twilight 8:22 AM AKST 5:19 PM AKST
Astronomical Twilight 7:20 AM AKST 6:20 PM AKST
Moon 10:06 AM AKST (12/23) 1:53 PM AKST (12/23)
Length of Visible Light 6h 33m
Length of Day
3h 43m
Waning Crescent, 1% of the Moon is Illuminated
Dec 23
Waning Crescent
Dec 24
New
Dec 31
First Quarter
Jan 8
Full
Jan 16
Last Quarter

Hourly Weather History & Observations

Time (AKST) Temp. Windchill Dew Point Humidity Pressure Visibility Wind Dir Wind Speed Gust Speed Precip Events Conditions
12:53 AM 10.0 °F 3.6 °F 7.0 °F 87% 29.18 in 7.0 mi ENE 3.5 mph - 0.00 in Snow Light Snow
1:53 AM 10.0 °F - 7.0 °F 87% 29.18 in 4.0 mi Calm Calm - 0.00 in Snow Light Snow
3:13 AM 10.4 °F - 6.8 °F 85% 29.16 in 3.0 mi Calm Calm - 0.01 in Snow Light Snow
3:53 AM 10.0 °F - 7.0 °F 87% 29.21 in 2.0 mi Calm Calm - 0.02 in Snow Light Snow
4:26 AM 10.4 °F - 8.6 °F 92% 29.18 in 1.5 mi Calm Calm - 0.00 in Snow Light Snow
4:53 AM 10.9 °F - 8.1 °F 88% 29.23 in 1.0 mi Calm Calm - 0.01 in Snow Light Snow
5:53 AM 10.9 °F - 8.1 °F 88% 29.26 in 1.0 mi Calm Calm - 0.03 in Snow Light Snow
6:53 AM 10.0 °F 1.8 °F 7.0 °F 87% 29.29 in 1.0 mi SSW 4.6 mph - 0.03 in Snow Light Snow
7:53 AM 9.0 °F 0.6 °F 6.1 °F 88% 29.33 in 1.0 mi SSW 4.6 mph - 0.02 in Snow Light Snow
8:53 AM 7.0 °F -1.7 °F 3.9 °F 87% 29.36 in 1.0 mi SW 4.6 mph - 0.01 in Snow Light Snow
9:53 AM 7.0 °F -1.7 °F 3.9 °F 87% 29.39 in 1.0 mi SSW 4.6 mph - 0.01 in Snow Light Snow
10:25 AM 6.8 °F -0.1 °F 3.2 °F 85% 29.37 in 2.5 mi SW 3.5 mph - 0.00 in Snow Light Snow
10:47 AM 6.8 °F -0.1 °F 3.2 °F 85% 29.40 in 3.0 mi SSW 3.5 mph - 0.00 in Snow Light Snow
10:53 AM 6.1 °F -2.8 °F 3.0 °F 87% 29.44 in 3.0 mi SSW 4.6 mph - 0.00 in Snow Light Snow
11:37 AM 6.8 °F - 3.2 °F 85% 29.43 in 2.5 mi Calm Calm - 0.00 in Snow Light Snow
11:53 AM 7.0 °F -1.7 °F 3.0 °F 84% 29.48 in 2.5 mi SW 4.6 mph - 0.00 in Snow Light Snow
12:12 PM 6.8 °F -2.0 °F 3.2 °F 85% 29.46 in 3.0 mi SSW 4.6 mph - 0.00 in Snow Light Snow
12:53 PM 6.1 °F -0.9 °F 1.9 °F 83% 29.52 in 7.0 mi SW 3.5 mph - 0.00 in Snow Light Snow
1:53 PM 5.0 °F -2.1 °F 1.9 °F 87% 29.55 in 7.0 mi SSW 3.5 mph - 0.00 in Snow Light Snow
2:48 PM 5.0 °F -4.1 °F 1.4 °F 85% 29.53 in 2.5 mi South 4.6 mph - 0.00 in Snow Light Snow
2:53 PM 5.0 °F -4.1 °F 1.9 °F 87% 29.57 in 2.5 mi South 4.6 mph - 0.00 in Snow Light Snow
3:53 PM 3.9 °F -3.4 °F 1.0 °F 88% 29.59 in 2.5 mi South 3.5 mph - 0.00 in Snow Light Snow
4:13 PM 3.2 °F -6.2 °F 1.4 °F 92% 29.55 in 5.0 mi South 4.6 mph - 0.00 in Snow Light Snow
4:53 PM 5.0 °F -2.1 °F 1.9 °F 87% 29.60 in 4.0 mi Variable 3.5 mph - 0.00 in Snow Light Snow
5:53 PM 3.9 °F -3.4 °F -0.0 °F 84% 29.62 in 4.0 mi South 3.5 mph - 0.00 in Snow Light Snow
6:53 PM 1.9 °F -5.6 °F -0.9 °F 88% 29.64 in 3.0 mi South 3.5 mph - 0.00 in Snow Light Snow
7:53 PM 1.0 °F -11.7 °F -2.0 °F 87% 29.67 in 4.0 mi South 6.9 mph - 0.01 in Snow Light Snow
8:53 PM 1.0 °F - -2.0 °F 87% 29.69 in 4.0 mi Calm Calm - 0.00 in Snow Light Snow
9:53 PM -5.1 °F - -8.0 °F 87% 29.71 in 7.0 mi Calm Calm - 0.00 in Snow Light Snow
10:53 PM -11.0 °F - -13.0 °F 91% 29.73 in 8.0 mi Calm Calm - 0.00 in Snow Light Snow
11:53 PM -11.9 °F -21.5 °F -16.1 °F 82% 29.75 in 8.0 mi ENE 3.5 mph - 0.00 in Snow Light Snow